FW7413 Weather Reports


time (UTC)temp
C
wind
direction
speed
KPH
gust
KPH
rain 1hr
cm
rain 24hr
cm
rain mn
cm
humidity
%
barometer
mb
20260906205756 40 201 1.6 4.8 0.00 0.00 0.00 28 1012.7
20260906205252 39 127 0.0 1.6 0.00 0.00 0.00 28 1012.5
20260906204748 39 156 1.6 1.6 0.00 0.00 0.00 29 1012.6
20260906204247 39 133 0.0 1.6 0.00 0.00 0.00 28 1012.9
20260906203746 38 89 0.0 1.6 0.00 0.00 0.00 28 1013.1
20260906203242 40 143 1.6 1.6 0.00 0.00 0.00 28 1012.9
20260906202738 40 281 1.6 3.2 0.00 0.00 0.00 27 1012.9
20260906202238 40 145 0.0 0.0 0.00 0.00 0.00 30 1013.1
20260906201732 40 186 4.8 8.0 0.00 0.00 0.00 28 1013.4
20260906201227 39 191 6.4 8.0 0.00 0.00 0.00 27 1013.1
20260906200723 40 147 1.6 3.2 0.00 0.00 0.00 29 1013.2
20260906200218 40 124 1.6 3.2 0.00 0.00 0.00 29 1013.4
20260906195714 39 71 3.2 3.2 0.00 0.00 0.00 29 1013.5
20260906195210 38 167 0.0 1.6 0.00 0.00 0.00 30 1013.7
20260906194705 38 212 6.4 8.0 0.00 0.00 0.00 29 1013.9
20260906194201 38 186 1.6 3.2 0.00 0.00 0.00 33 1013.9
20260906193655 38 118 0.0 1.6 0.00 0.00 0.00 33 1013.6
20260906193150 37 142 0.0 1.6 0.00 0.00 0.00 32 1013.9
20260906192646 37 138 1.6 3.2 0.00 0.00 0.00 31 1013.8
20260906192145 38 137 1.6 1.6 0.00 0.00 0.00 31 1014.2
20260906191640 38 69 1.6 4.8 0.00 0.00 0.00 31 1014.0
20260906191139 37 169 1.6 1.6 0.00 0.00 0.00 33 1014.0
20260906190634 37 135 0.0 0.0 0.00 0.00 0.00 34 1014.2
20260906190129 36 131 1.6 3.2 0.00 0.00 0.00 34 1014.3
20260906185628 36 124 4.8 8.0 0.00 0.00 0.00 34 1014.3
20260906185127 37 135 3.2 9.7 0.00 0.00 0.00 33 1014.6
20260906184622 38 87 3.2 3.2 0.00 0.00 0.00 33 1014.2
20260906184118 37 164 3.2 4.8 0.00 0.00 0.00 32 1014.3
20260906183614 37 176 3.2 4.8 0.00 0.00 0.00 33 1014.6
20260906183109 37 112 1.6 4.8 0.00 0.00 0.00 34 1014.9
20260906182604 38 130 0.0 1.6 0.00 0.00 0.00 32 1014.8
20260906182100 38 119 0.0 1.6 0.00 0.00 0.00 32 1015.0
20260906181555 37 108 1.6 3.2 0.00 0.00 0.00 33 1015.0
20260906181051 37 74 6.4 9.7 0.00 0.00 0.00 33 1015.0
20260906180551 37 126 1.6 3.2 0.00 0.00 0.00 36 1014.9
20260906180050 38 131 3.2 8.0 0.00 0.00 0.00 34 1015.2
20260906175549 38 144 3.2 8.0 0.00 0.00 0.00 35 1015.2
20260906175044 37 112 3.2 4.8 0.00 0.00 0.00 35 1015.3
20260906174542 37 141 0.0 0.0 0.00 0.00 0.00 36 1015.5
20260906174037 37 142 0.0 0.0 0.00 0.00 0.00 35 1015.5
20260906173532 37 101 3.2 4.8 0.00 0.00 0.00 35 1015.5
20260906173028 37 129 0.0 0.0 0.00 0.00 0.00 36 1015.8
20260906172522 36 153 3.2 4.8 0.00 0.00 0.00 37 1015.5
20260906172018 36 139 1.6 1.6 0.00 0.00 0.00 36 1015.9
20260906171513 37 147 1.6 3.2 0.00 0.00 0.00 35 1015.8
20260906171008 37 159 0.0 0.0 0.00 0.00 0.00 35 1016.0
20260906170504 38 157 0.0 1.6 0.00 0.00 0.00 34 1015.8
20260906170002 37 141 1.6 3.2 0.00 0.00 0.00 35 1016.1
20260906165500 37 89 0.0 0.0 0.00 0.00 0.00 35 1016.2
20260906164955 37 140 3.2 4.8 0.00 0.00 0.00 36 1016.3
20260906164454 36 155 1.6 3.2 0.00 0.00 0.00 37 1016.3
20260906163950 37 164 3.2 8.0 0.00 0.00 0.00 36 1016.5
20260906163446 37 144 3.2 3.2 0.00 0.00 0.00 35 1016.3
20260906162944 37 89 4.8 4.8 0.00 0.00 0.00 36 1016.4
20260906162443 36 110 1.6 3.2 0.00 0.00 0.00 38 1016.2
20260906161938 36 133 0.0 0.0 0.00 0.00 0.00 38 1016.5
20260906161438 37 155 1.6 3.2 0.00 0.00 0.00 36 1016.1
20260906160937 37 147 0.0 0.0 0.00 0.00 0.00 38 1016.3
20260906160430 36 171 0.0 1.6 0.00 0.00 0.00 37 1016.3
20260906155929 36 151 0.0 1.6 0.00 0.00 0.00 39 1016.3
20260906155428 35 148 0.0 0.0 0.00 0.00 0.00 39 1016.3
20260906154924 35 143 0.0 0.0 0.00 0.00 0.00 40 1016.1
20260906154419 34 155 0.0 0.0 0.00 0.00 0.00 41 1016.3
20260906153917 34 202 1.6 3.2 0.00 0.00 0.00 41 1016.2
20260906153416 33 153 0.0 1.6 0.00 0.00 0.00 42 1015.9
20260906152912 33 181 6.4 9.7 0.00 0.00 0.00 42 1016.0
20260906152407 33 172 3.2 8.0 0.00 0.00 0.00 42 1016.0
20260906151906 33 155 0.0 0.0 0.00 0.00 0.00 43 1015.9
20260906151401 33 165 4.8 8.0 0.00 0.00 0.00 43 1016.1
20260906150857 34 211 3.2 4.8 0.00 0.00 0.00 42 1016.0
20260906150352 33 142 0.0 0.0 0.00 0.00 0.00 44 1016.2
20260906145852 33 153 0.0 0.0 0.00 0.00 0.00 44 1015.7
20260906145350 33 178 0.0 1.6 0.00 0.00 0.00 44 1015.8
20260906144845 33 155 1.6 1.6 0.00 0.00 0.00 45 1016.0
20260906144340 33 159 1.6 1.6 0.00 0.00 0.00 44 1016.1
20260906143840 32 171 1.6 3.2 0.00 0.00 0.00 45 1015.9
20260906143337 32 153 0.0 1.6 0.00 0.00 0.00 47 1015.9
20260906142832 32 165 0.0 1.6 0.00 0.00 0.00 47 1015.7
20260906142326 31 165 1.6 3.2 0.00 0.00 0.00 47 1016.0
20260906141821 31 169 1.6 1.6 0.00 0.00 0.00 48 1016.0
20260906141315 31 165 0.0 1.6 0.00 0.00 0.00 48 1015.8
20260906140814 31 157 1.6 1.6 0.00 0.00 0.00 48 1015.9
20260906140309 31 167 0.0 1.6 0.00 0.00 0.00 49 1016.0
20260906135807 30 175 1.6 1.6 0.00 0.00 0.00 49 1015.8
20260906135305 30 169 1.6 3.2 0.00 0.00 0.00 50 1015.8
20260906134757 30 157 0.0 0.0 0.00 0.00 0.00 51 1015.6
20260906134252 30 188 1.6 3.2 0.00 0.00 0.00 52 1015.8
20260906133748 29 172 1.6 3.2 0.00 0.00 0.00 53 1015.7
20260906133243 28 163 1.6 1.6 0.00 0.00 0.00 53 1015.7
20260906132739 28 205 0.0 3.2 0.00 0.00 0.00 53 1015.8
20260906132234 28 162 0.0 0.0 0.00 0.00 0.00 53 1015.8
20260906131730 28 160 0.0 0.0 0.00 0.00 0.00 55 1015.5
20260906131224 28 152 0.0 0.0 0.00 0.00 0.00 55 1015.6
20260906130720 27 149 0.0 0.0 0.00 0.00 0.00 57 1015.5
20260906130215 27 161 0.0 0.0 0.00 0.00 0.00 58 1015.3
20260906125713 27 161 0.0 0.0 0.00 0.00 0.00 58 1015.4
20260906125212 26 162 0.0 0.0 0.00 0.00 0.00 59 1015.3
20260906124707 26 162 0.0 0.0 0.00 0.00 0.00 59 1015.2
20260906124203 26 156 0.0 0.0 0.00 0.00 0.00 59 1015.2
20260906123701 26 164 0.0 0.0 0.00 0.00 0.00 59 1015.0
20260906123156 26 160 0.0 0.0 0.00 0.00 0.00 59 1015.1
20260906122655 26 162 0.0 0.0 0.00 0.00 0.00 59 1015.1
20260906122151 26 161 0.0 0.0 0.00 0.00 0.00 59 1015.1
20260906121648 26 166 0.0 0.0 0.00 0.00 0.00 59 1014.8
20260906121144 26 158 0.0 0.0 0.00 0.00 0.00 59 1014.9
20260906120639 26 158 0.0 0.0 0.00 0.00 0.00 59 1014.9
20260906120136 26 158 0.0 0.0 0.00 0.00 0.00 60 1014.8
20260906115631 26 158 0.0 0.0 0.00 0.00 0.00 59 1015.0
20260906115127 26 159 0.0 0.0 0.00 0.00 0.00 58 1014.8
20260906114625 26 159 0.0 0.0 0.00 0.00 0.00 58 1014.7
20260906114121 26 158 0.0 0.0 0.00 0.00 0.00 58 1014.8
20260906113620 26 158 0.0 0.0 0.00 0.00 0.00 57 1014.5
20260906113120 26 160 0.0 0.0 0.00 0.00 0.00 57 1014.6
20260906112620 26 159 0.0 0.0 0.00 0.00 0.00 57 1014.6
20260906112117 26 161 0.0 0.0 0.00 0.00 0.00 57 1014.3
20260906111616 26 157 0.0 0.0 0.00 0.00 0.00 57 1014.0
20260906111112 26 163 0.0 0.0 0.00 0.00 0.00 57 1014.4
20260906110612 26 152 0.0 0.0 0.00 0.00 0.00 57 1014.0
20260906110106 26 156 0.0 0.0 0.00 0.00 0.00 57 1014.2
20260906105600 26 156 0.0 0.0 0.00 0.00 0.00 57 1014.2
20260906105057 26 156 0.0 0.0 0.00 0.00 0.00 57 1014.4
20260906104555 26 158 0.0 0.0 0.00 0.00 0.00 57 1014.4
20260906104050 26 158 0.0 0.0 0.00 0.00 0.00 58 1014.0
20260906103548 26 171 1.6 1.6 0.00 0.00 0.00 59 1013.9
20260906103044 26 158 0.0 0.0 0.00 0.00 0.00 59 1013.9
20260906102543 26 158 0.0 0.0 0.00 0.00 0.00 59 1014.2
20260906102038 26 156 0.0 0.0 0.00 0.00 0.00 59 1014.0
20260906101533 26 154 0.0 0.0 0.00 0.00 0.00 59 1014.0
20260906101028 25 153 0.0 0.0 0.00 0.00 0.00 59 1014.0
20260906100524 25 153 0.0 0.0 0.00 0.00 0.00 59 1014.0
20260906100024 26 159 0.0 0.0 0.00 0.00 0.00 58 1013.9
20260906095518 26 159 0.0 0.0 0.00 0.00 0.00 58 1013.9
20260906095014 26 159 0.0 0.0 0.00 0.00 0.00 58 1013.7
20260906094512 26 159 0.0 0.0 0.00 0.00 0.00 56 1013.7
20260906094009 26 159 0.0 0.0 0.00 0.00 0.00 55 1013.9
20260906093505 27 161 0.0 0.0 0.00 0.00 0.00 55 1013.7
20260906093000 27 162 0.0 0.0 0.00 0.00 0.00 54 1013.9
20260906092459 27 161 0.0 0.0 0.00 0.00 0.00 54 1014.2
20260906091954 27 160 0.0 0.0 0.00 0.00 0.00 53 1014.2
20260906091450 27 160 0.0 0.0 0.00 0.00 0.00 52 1014.0
20260906090947 27 161 0.0 0.0 0.00 0.00 0.00 52 1013.7
20260906090442 28 161 0.0 0.0 0.00 0.00 0.00 51 1013.8
20260906085941 28 159 0.0 0.0 0.00 0.00 0.00 51 1013.9
20260906085441 28 162 0.0 0.0 0.00 0.00 0.00 50 1013.8
20260906084940 28 165 0.0 0.0 0.00 0.00 0.00 50 1013.9
20260906084435 28 166 0.0 0.0 0.00 0.00 0.00 50 1013.7
20260906083934 28 160 0.0 1.6 0.00 0.00 0.00 50 1013.6
20260906083430 28 168 0.0 0.0 0.00 0.00 0.00 50 1013.8
20260906082929 28 168 0.0 0.0 0.00 0.00 0.00 50 1013.9
20260906082424 28 165 0.0 0.0 0.00 0.00 0.00 50 1013.9
20260906081920 28 161 0.0 0.0 0.00 0.00 0.00 50 1013.7
20260906081415 28 171 0.0 1.6 0.00 0.00 0.00 49 1013.8
20260906080912 28 165 0.0 0.0 0.00 0.00 0.00 50 1013.7
20260906080408 28 161 0.0 0.0 0.00 0.00 0.00 49 1013.5
20260906075907 28 169 0.0 0.0 0.00 0.00 0.00 49 1013.8
20260906075402 28 163 0.0 0.0 0.00 0.00 0.00 49 1013.7
20260906074857 28 165 0.0 0.0 0.00 0.00 0.00 49 1013.8
20260906074357 28 169 0.0 0.0 0.00 0.00 0.00 49 1013.7
20260906073855 28 164 0.0 0.0 0.00 0.00 0.00 49 1013.9
20260906073351 28 166 0.0 0.0 0.00 0.00 0.00 49 1013.8
20260906072847 28 157 0.0 0.0 0.00 0.00 0.00 49 1013.7
20260906072343 28 160 0.0 0.0 0.00 0.00 0.00 49 1013.7
20260906071838 29 161 0.0 0.0 0.00 0.00 0.00 48 1013.7
20260906071333 29 151 0.0 0.0 0.00 0.00 0.00 48 1013.8
20260906070830 29 166 1.6 1.6 0.00 0.00 0.00 48 1013.7
20260906070325 29 178 1.6 1.6 0.00 0.00 0.00 47 1013.8
20260906065820 29 179 0.0 1.6 0.00 0.00 0.00 47 1013.8
20260906065315 29 155 0.0 1.6 0.00 0.00 0.00 47 1013.8
20260906064811 29 179 1.6 3.2 0.00 0.00 0.00 47 1013.7
20260906064307 29 159 0.0 0.0 0.00 0.00 0.00 47 1013.7
20260906063801 30 168 0.0 1.6 0.00 0.00 0.00 47 1013.9
20260906063256 30 179 1.6 1.6 0.00 0.00 0.00 46 1013.8
20260906062752 30 158 0.0 0.0 0.00 0.00 0.00 46 1013.9
20260906062251 30 187 3.2 4.8 0.00 0.00 0.00 46 1014.0
20260906061746 30 165 0.0 1.6 0.00 0.00 0.00 46 1013.8
20260906061243 30 164 0.0 0.0 0.00 0.00 0.00 46 1013.7
20260906060738 30 160 0.0 1.6 0.00 0.00 0.00 45 1014.0
20260906060236 30 171 0.0 1.6 0.00 0.00 0.00 45 1014.0
20260906055730 30 168 1.6 1.6 0.00 0.00 0.00 45 1013.7
20260906055220 30 177 3.2 3.2 0.00 0.00 0.00 45 1013.6
20260906054715 30 166 0.0 1.6 0.00 0.00 0.00 45 1013.8
20260906054210 30 161 0.0 0.0 0.00 0.00 0.00 45 1013.7
20260906053707 30 170 1.6 3.2 0.00 0.00 0.00 44 1013.6
20260906053202 30 185 3.2 3.2 0.00 0.00 0.00 44 1013.7
20260906052657 30 169 0.0 1.6 0.00 0.00 0.00 44 1013.7
20260906052154 30 184 3.2 3.2 0.00 0.00 0.00 44 1013.6
20260906051650 30 174 1.6 3.2 0.00 0.00 0.00 44 1013.5
20260906051149 30 175 1.6 1.6 0.00 0.00 0.00 44 1013.6
20260906050645 30 161 0.0 1.6 0.00 0.00 0.00 44 1013.5
20260906050140 31 157 0.0 0.0 0.00 0.00 0.00 44 1013.5
20260906045638 31 150 0.0 0.0 0.00 0.00 0.00 44 1013.5
20260906045133 31 137 0.0 1.6 0.00 0.00 0.00 43 1013.4
20260906044630 31 190 0.0 3.2 0.00 0.00 0.00 43 1013.5
20260906044124 31 160 0.0 0.0 0.00 0.00 0.00 43 1013.5
20260906043621 31 150 0.0 1.6 0.00 0.00 0.00 44 1013.5
20260906043116 31 162 0.0 1.6 0.00 0.00 0.00 44 1013.6
20260906042615 31 162 0.0 0.0 0.00 0.00 0.00 44 1013.7
20260906042110 31 166 0.0 0.0 0.00 0.00 0.00 44 1013.7
20260906041606 31 172 0.0 1.6 0.00 0.00 0.00 43 1013.6
20260906041100 31 157 0.0 0.0 0.00 0.00 0.00 43 1013.8
20260906040556 31 161 0.0 0.0 0.00 0.00 0.00 42 1013.7
20260906040051 31 169 0.0 1.6 0.00 0.00 0.00 42 1013.8
20260906035546 31 159 0.0 0.0 0.00 0.00 0.00 42 1013.6
20260906035042 31 163 0.0 0.0 0.00 0.00 0.00 41 1013.6
20260906034542 32 190 1.6 3.2 0.00 0.00 0.00 41 1013.7
20260906034037 32 156 0.0 0.0 0.00 0.00 0.00 40 1013.4
20260906033532 32 160 0.0 1.6 0.00 0.00 0.00 40 1013.6
20260906033028 32 156 0.0 1.6 0.00 0.00 0.00 40 1013.7
20260906032525 32 168 1.6 1.6 0.00 0.00 0.00 40 1013.4
20260906032024 32 159 0.0 1.6 0.00 0.00 0.00 40 1013.7
20260906031520 32 155 0.0 1.6 0.00 0.00 0.00 39 1013.3
20260906031015 32 156 0.0 0.0 0.00 0.00 0.00 39 1013.4
20260906030514 32 155 0.0 1.6 0.00 0.00 0.00 39 1013.4
20260906030015 32 157 0.0 0.0 0.00 0.00 0.00 39 1013.4
20260906025514 32 160 0.0 0.0 0.00 0.00 0.00 39 1013.2
20260906025012 32 165 3.2 3.2 0.00 0.00 0.00 39 1013.5
20260906024508 33 153 0.0 0.0 0.00 0.00 0.00 38 1013.3
20260906024002 33 196 1.6 3.2 0.00 0.00 0.00 38 1013.3
20260906023458 33 167 0.0 1.6 0.00 0.00 0.00 38 1013.1
20260906022953 33 153 0.0 0.0 0.00 0.00 0.00 38 1013.2
20260906022448 33 154 0.0 0.0 0.00 0.00 0.00 38 1013.0
20260906021943 33 164 0.0 1.6 0.00 0.00 0.00 38 1012.9
20260906021438 33 159 0.0 1.6 0.00 0.00 0.00 38 1013.0
20260906020933 33 158 0.0 0.0 0.00 0.00 0.00 38 1012.9
20260906020427 33 148 0.0 1.6 0.00 0.00 0.00 37 1012.8
20260906015921 33 163 1.6 1.6 0.00 0.00 0.00 38 1012.9
20260906015421 33 168 1.6 3.2 0.00 0.00 0.00 37 1012.7
20260906014921 33 160 0.0 0.0 0.00 0.00 0.00 37 1012.9
20260906014420 33 158 0.0 0.0 0.00 0.00 0.00 37 1012.9
20260906013917 33 158 0.0 0.0 0.00 0.00 0.00 37 1012.5
20260906013412 34 164 0.0 0.0 0.00 0.00 0.00 36 1012.5
20260906012908 34 155 0.0 0.0 0.00 0.00 0.00 37 1012.5
20260906012402 34 163 0.0 0.0 0.00 0.00 0.00 36 1012.5
20260906011901 34 157 0.0 0.0 0.00 0.00 0.00 36 1012.4
20260906011356 35 159 0.0 1.6 0.00 0.00 0.00 36 1012.4
20260906010852 35 166 1.6 1.6 0.00 0.00 0.00 35 1012.4
20260906010348 35 156 0.0 0.0 0.00 0.00 0.00 35 1012.4
20260906005843 35 164 0.0 0.0 0.00 0.00 0.00 34 1012.2
20260906005343 35 192 1.6 3.2 0.00 0.00 0.00 34 1012.3
20260906004841 35 151 0.0 0.0 0.00 0.00 0.00 34 1012.2
20260906004336 35 127 0.0 0.0 0.00 0.00 0.00 33 1012.1
20260906003831 36 187 1.6 3.2 0.00 0.00 0.00 32 1012.3
20260906003326 36 158 0.0 0.0 0.00 0.00 0.00 32 1012.0
20260906002822 36 138 3.2 4.8 0.00 0.00 0.00 31 1012.1
20260906002321 36 150 0.0 1.6 0.00 0.00 0.00 31 1011.9
20260906001818 36 158 0.0 1.6 0.00 0.00 0.00 31 1012.0
20260906001312 36 149 3.2 3.2 0.00 0.00 0.00 31 1012.1
20260906000807 37 161 1.6 1.6 0.00 0.00 0.00 30 1012.2
20260906000303 37 141 0.0 0.0 0.00 0.00 0.00 30 1011.9
20260905235757 37 138 0.0 0.0 0.00 0.00 0.00 30 1011.9
20260905235256 37 136 0.0 0.0 0.00 0.00 0.00 30 1012.0
20260905234752 37 136 1.6 3.2 0.00 0.00 0.00 30 1011.8
20260905234247 37 153 3.2 8.0 0.00 0.00 0.00 30 1011.9
20260905233743 37 131 3.2 3.2 0.00 0.00 0.00 30 1011.9
20260905233242 37 118 0.0 3.2 0.00 0.00 0.00 30 1011.7
20260905232742 37 145 1.6 4.8 0.00 0.00 0.00 30 1012.0
20260905232238 37 98 0.0 1.6 0.00 0.00 0.00 30 1011.9
20260905231733 37 160 0.0 1.6 0.00 0.00 0.00 30 1011.9
20260905231228 37 122 0.0 0.0 0.00 0.00 0.00 30 1011.7
20260905230725 37 153 1.6 8.0 0.00 0.00 0.00 30 1011.8
20260905230222 37 129 1.6 3.2 0.00 0.00 0.00 30 1011.8
20260905225722 37 156 0.0 1.6 0.00 0.00 0.00 30 1011.8
20260905225217 37 167 1.6 3.2 0.00 0.00 0.00 30 1011.7
20260905224716 38 206 4.8 8.0 0.00 0.00 0.00 29 1011.7
20260905224212 38 152 0.0 0.0 0.00 0.00 0.00 30 1011.8
20260905223708 38 142 0.0 0.0 0.00 0.00 0.00 30 1011.6
20260905223205 37 160 0.0 0.0 0.00 0.00 0.00 30 1011.8
20260905222700 37 123 0.0 3.2 0.00 0.00 0.00 30 1011.7
20260905222159 37 145 3.2 8.0 0.00 0.00 0.00 29 1011.6
20260905221655 37 146 1.6 3.2 0.00 0.00 0.00 30 1011.9
20260905221152 38 157 0.0 1.6 0.00 0.00 0.00 30 1011.7
20260905220647 38 144 4.8 9.7 0.00 0.00 0.00 30 1011.8
20260905220143 38 160 4.8 4.8 0.00 0.00 0.00 29 1011.7
20260905215643 38 217 4.8 9.7 0.00 0.00 0.00 29 1011.9
20260905215138 38 188 6.4 9.7 0.00 0.00 0.00 29 1011.9
20260905214634 37 180 3.2 4.8 0.00 0.00 0.00 31 1012.1
20260905214129 38 179 4.8 8.0 0.00 0.00 0.00 30 1011.9
20260905213624 38 118 1.6 3.2 0.00 0.00 0.00 31 1012.1
20260905213119 38 146 1.6 4.8 0.00 0.00 0.00 31 1012.1
20260905212615 38 138 4.8 9.7 0.00 0.00 0.00 30 1012.5
20260905212114 38 154 1.6 3.2 0.00 0.00 0.00 30 1012.2
20260905211609 38 172 4.8 8.0 0.00 0.00 0.00 30 1012.4
20260905211105 38 158 0.0 1.6 0.00 0.00 0.00 30 1012.4
20260905210601 38 133 0.0 0.0 0.00 0.00 0.00 30 1012.6
20260905210055 37 126 1.6 4.8 0.00 0.00 0.00 30 1012.4